Time,TemperatureF,DewpointF,PressureIn,WindDirection,WindDirectionDegrees,WindSpeedMPH,WindSpeedGustMPH,Humidity,HourlyPrecipIn,Conditions,Clouds,dailyrainin,SolarRadiationWatts/m^2,SoftwareType,DateUTC
2013-01-01 00:03:00,34.0,29.0,-100.00,NE,56,1.0,3.0,82,0.00,,,-99.99,0.000000,,2013-01-01 05:03:00,
2013-01-01 00:12:00,34.0,29.0,-100.00,NE,56,1.0,3.0,82,0.00,,,-99.99,0.000000,,2013-01-01 05:12:00,
2013-01-01 00:33:00,34.0,30.0,-100.00,ESE,109,0.0,1.0,85,0.00,,,-99.99,0.000000,,2013-01-01 05:33:00,
2013-01-01 00:42:00,34.0,30.0,-100.00,ESE,109,0.0,1.0,85,0.00,,,-99.99,0.000000,,2013-01-01 05:42:00,
2013-01-01 00:53:00,34.0,30.0,-100.00,ESE,109,0.0,1.0,85,0.00,,,-99.99,0.000000,,2013-01-01 05:53:00,
2013-01-01 01:02:00,34.0,30.0,-100.00,ESE,109,0.0,1.0,85,0.00,,,-99.99,0.000000,,2013-01-01 06:02:00,
2013-01-01 01:12:00,34.0,30.0,-100.00,ESE,109,0.0,1.0,85,0.00,,,-99.99,0.000000,,2013-01-01 06:12:00,
2013-01-01 01:33:00,33.0,31.0,-100.00,East,99,0.0,0.0,92,0.01,,,-99.99,0.000000,,2013-01-01 06:33:00,
2013-01-01 01:43:00,33.0,31.0,-100.00,East,99,0.0,0.0,92,0.01,,,-99.99,0.000000,,2013-01-01 06:43:00,
2013-01-01 01:52:00,33.0,31.0,-100.00,East,99,0.0,0.0,92,0.01,,,-99.99,0.000000,,2013-01-01 06:52:00,
2013-01-01 02:02:00,33.0,31.0,-100.00,East,99,0.0,0.0,92,0.01,,,-99.99,0.000000,,2013-01-01 07:02:00,
2013-01-01 02:12:00,33.0,31.0,-100.00,East,99,0.0,0.0,92,0.01,,,-99.99,0.000000,,2013-01-01 07:12:00,
2013-01-01 02:32:00,33.0,32.0,-100.00,NE,37,0.0,3.0,98,0.01,,,-99.99,0.000000,,2013-01-01 07:32:00,
2013-01-01 02:42:00,33.0,32.0,-100.00,NE,37,0.0,3.0,98,0.01,,,-99.99,0.000000,,2013-01-01 07:42:00,
2013-01-01 02:53:00,33.0,32.0,-100.00,NE,37,0.0,3.0,98,0.01,,,-99.99,0.000000,,2013-01-01 07:53:00,
2013-01-01 03:02:00,33.0,32.0,-100.00,NE,37,0.0,3.0,98,0.01,,,-99.99,0.000000,,2013-01-01 08:02:00,
2013-01-01 03:12:00,33.0,32.0,-100.00,NE,37,0.0,3.0,98,0.01,,,-99.99,0.000000,,2013-01-01 08:12:00,
2013-01-01 03:42:00,33.0,33.0,-100.00,SSE,151,0.0,0.0,100,0.01,,,-99.99,0.000000,,2013-01-01 08:42:00,
2013-01-01 03:53:00,33.0,33.0,-100.00,SSE,151,0.0,0.0,100,0.01,,,-99.99,0.000000,,2013-01-01 08:53:00,
2013-01-01 04:02:00,33.0,33.0,-100.00,SSE,151,0.0,0.0,100,0.01,,,-99.99,0.000000,,2013-01-01 09:02:00,
2013-01-01 04:12:00,33.0,33.0,-100.00,SSE,151,0.0,0.0,100,0.01,,,-99.99,0.000000,,2013-01-01 09:12:00,
2013-01-01 04:32:00,33.0,33.0,-100.00,ENE,57,0.0,4.0,100,0.01,,,-99.99,0.000000,,2013-01-01 09:32:00,
2013-01-01 04:42:00,33.0,33.0,-100.00,ENE,57,0.0,4.0,100,0.01,,,-99.99,0.000000,,2013-01-01 09:42:00,
2013-01-01 04:52:00,33.0,33.0,-100.00,ENE,57,0.0,4.0,100,0.01,,,-99.99,0.000000,,2013-01-01 09:52:00,
2013-01-01 05:02:00,33.0,33.0,-100.00,ENE,57,0.0,4.0,100,0.01,,,-99.99,0.000000,,2013-01-01 10:02:00,
2013-01-01 05:12:00,33.0,33.0,-100.00,ENE,57,0.0,4.0,100,0.01,,,-99.99,0.000000,,2013-01-01 10:12:00,
2013-01-01 05:33:00,33.0,33.0,-100.00,NE,40,0.0,0.0,100,0.02,,,-99.99,0.000000,,2013-01-01 10:33:00,
2013-01-01 05:43:00,33.0,33.0,-100.00,NE,40,0.0,0.0,100,0.02,,,-99.99,0.000000,,2013-01-01 10:43:00,
2013-01-01 05:53:00,33.0,33.0,-100.00,NE,40,0.0,0.0,100,0.02,,,-99.99,0.000000,,2013-01-01 10:53:00,
2013-01-01 06:02:00,33.0,33.0,-100.00,NE,40,0.0,0.0,100,0.02,,,-99.99,0.000000,,2013-01-01 11:02:00,
2013-01-01 06:12:00,33.0,33.0,-100.00,NE,40,0.0,0.0,100,0.02,,,-99.99,0.000000,,2013-01-01 11:12:00,
2013-01-01 06:33:00,33.0,33.0,-100.00,East,91,0.0,0.0,100,0.02,,,-99.99,0.000000,,2013-01-01 11:33:00,
2013-01-01 06:43:00,33.0,33.0,-100.00,East,91,0.0,0.0,100,0.02,,,-99.99,0.000000,,2013-01-01 11:43:00,
2013-01-01 06:53:00,33.0,33.0,-100.00,East,91,0.0,0.0,100,0.02,,,-99.99,0.000000,,2013-01-01 11:53:00,
2013-01-01 07:03:00,33.0,33.0,-100.00,East,91,0.0,0.0,100,0.02,,,-99.99,0.000000,,2013-01-01 12:03:00,
2013-01-01 07:12:00,33.0,33.0,-100.00,East,91,0.0,0.0,100,0.02,,,-99.99,0.000000,,2013-01-01 12:12:00,
2013-01-01 07:43:00,33.0,33.0,-100.00,East,97,1.0,4.0,100,0.03,,,-99.99,0.000000,,2013-01-01 12:43:00,
2013-01-01 07:53:00,33.0,33.0,-100.00,East,97,1.0,4.0,100,0.03,,,-99.99,0.000000,,2013-01-01 12:53:00,
2013-01-01 08:03:00,33.0,33.0,-100.00,East,97,1.0,4.0,100,0.03,,,-99.99,0.000000,,2013-01-01 13:03:00,
2013-01-01 08:12:00,33.0,33.0,-100.00,East,97,1.0,4.0,100,0.03,,,-99.99,0.000000,,2013-01-01 13:12:00,
2013-01-01 08:33:00,34.0,34.0,-100.00,ENE,61,3.0,7.0,100,0.00,,,-99.99,3.000000,,2013-01-01 13:33:00,
2013-01-01 08:43:00,34.0,34.0,-100.00,ENE,61,3.0,7.0,100,0.00,,,-99.99,3.000000,,2013-01-01 13:43:00,
2013-01-01 08:53:00,34.0,34.0,-100.00,ENE,61,3.0,7.0,100,0.00,,,-99.99,3.000000,,2013-01-01 13:53:00,
2013-01-01 09:02:00,34.0,34.0,-100.00,ENE,61,3.0,7.0,100,0.00,,,-99.99,3.000000,,2013-01-01 14:02:00,
2013-01-01 09:12:00,34.0,34.0,-100.00,ENE,61,3.0,7.0,100,0.00,,,-99.99,3.000000,,2013-01-01 14:12:00,
2013-01-01 09:43:00,36.0,36.0,-100.00,ENE,77,2.0,6.0,100,0.00,,,-99.99,17.000000,,2013-01-01 14:43:00,
2013-01-01 09:53:00,36.0,36.0,-100.00,ENE,77,2.0,6.0,100,0.00,,,-99.99,17.000000,,2013-01-01 14:53:00,
2013-01-01 10:03:00,36.0,36.0,-100.00,ENE,77,2.0,6.0,100,0.00,,,-99.99,17.000000,,2013-01-01 15:03:00,
2013-01-01 10:12:00,36.0,36.0,-100.00,ENE,77,2.0,6.0,100,0.00,,,-99.99,17.000000,,2013-01-01 15:12:00,
2013-01-01 10:33:00,39.0,39.0,-100.00,East,101,3.0,7.0,100,0.00,,,-99.99,36.000000,,2013-01-01 15:33:00,
2013-01-01 10:43:00,39.0,39.0,-100.00,East,101,3.0,7.0,100,0.00,,,-99.99,36.000000,,2013-01-01 15:43:00,
2013-01-01 10:53:00,39.0,39.0,-100.00,East,101,3.0,7.0,100,0.00,,,-99.99,36.000000,,2013-01-01 15:53:00,
2013-01-01 11:02:00,39.0,39.0,-100.00,East,101,3.0,7.0,100,0.00,,,-99.99,36.000000,,2013-01-01 16:02:00,
2013-01-01 11:12:00,39.0,39.0,-100.00,East,101,3.0,7.0,100,0.00,,,-99.99,36.000000,,2013-01-01 16:12:00,
2013-01-01 11:33:00,41.0,41.0,-100.00,East,99,4.0,7.0,100,0.00,,,-99.99,30.000000,,2013-01-01 16:33:00,
2013-01-01 11:43:00,41.0,41.0,-100.00,East,99,4.0,7.0,100,0.00,,,-99.99,30.000000,,2013-01-01 16:43:00,
2013-01-01 11:53:00,41.0,41.0,-100.00,East,99,4.0,7.0,100,0.00,,,-99.99,30.000000,,2013-01-01 16:53:00,
2013-01-01 12:02:00,41.0,41.0,-100.00,East,99,4.0,7.0,100,0.00,,,-99.99,30.000000,,2013-01-01 17:02:00,
2013-01-01 12:12:00,41.0,41.0,-100.00,East,99,4.0,7.0,100,0.00,,,-99.99,30.000000,,2013-01-01 17:12:00,
2013-01-01 12:33:00,41.0,41.0,-100.00,SSE,158,2.0,6.0,100,0.00,,,-99.99,41.000000,,2013-01-01 17:33:00,
2013-01-01 12:43:00,41.0,41.0,-100.00,SSE,158,2.0,6.0,100,0.00,,,-99.99,41.000000,,2013-01-01 17:43:00,
2013-01-01 12:53:00,41.0,41.0,-100.00,SSE,158,2.0,6.0,100,0.00,,,-99.99,41.000000,,2013-01-01 17:53:00,
2013-01-01 13:03:00,41.0,41.0,-100.00,SSE,158,2.0,6.0,100,0.00,,,-99.99,41.000000,,2013-01-01 18:03:00,
2013-01-01 13:13:00,41.0,41.0,-100.00,SSE,158,2.0,6.0,100,0.00,,,-99.99,41.000000,,2013-01-01 18:13:00,
2013-01-01 13:33:00,40.0,40.0,-100.00,East,89,3.0,5.0,100,0.00,,,-99.99,36.000000,,2013-01-01 18:33:00,
2013-01-01 13:43:00,40.0,40.0,-100.00,East,89,3.0,5.0,100,0.00,,,-99.99,36.000000,,2013-01-01 18:43:00,
2013-01-01 13:53:00,40.0,40.0,-100.00,East,89,3.0,5.0,100,0.00,,,-99.99,36.000000,,2013-01-01 18:53:00,
2013-01-01 14:02:00,40.0,40.0,-100.00,East,89,3.0,5.0,100,0.00,,,-99.99,36.000000,,2013-01-01 19:02:00,
2013-01-01 14:12:00,40.0,40.0,-100.00,East,89,3.0,5.0,100,0.00,,,-99.99,36.000000,,2013-01-01 19:12:00,
2013-01-01 14:33:00,39.0,39.0,-100.00,NE,43,3.0,6.0,100,0.00,,,-99.99,23.000000,,2013-01-01 19:33:00,
2013-01-01 14:43:00,39.0,39.0,-100.00,NE,43,3.0,6.0,100,0.00,,,-99.99,23.000000,,2013-01-01 19:43:00,
2013-01-01 14:53:00,39.0,39.0,-100.00,NE,43,3.0,6.0,100,0.00,,,-99.99,23.000000,,2013-01-01 19:53:00,
2013-01-01 15:02:00,39.0,39.0,-100.00,NE,43,3.0,6.0,100,0.00,,,-99.99,23.000000,,2013-01-01 20:02:00,
2013-01-01 15:13:00,39.0,39.0,-100.00,NE,43,3.0,6.0,100,0.00,,,-99.99,23.000000,,2013-01-01 20:13:00,
2013-01-01 15:43:00,39.0,39.0,-100.00,ESE,106,1.0,5.0,100,0.00,,,-99.99,20.000000,,2013-01-01 20:43:00,
2013-01-01 15:53:00,39.0,39.0,-100.00,ESE,106,1.0,5.0,100,0.00,,,-99.99,20.000000,,2013-01-01 20:53:00,
2013-01-01 16:03:00,39.0,39.0,-100.00,ESE,106,1.0,5.0,100,0.00,,,-99.99,20.000000,,2013-01-01 21:03:00,
2013-01-01 16:13:00,39.0,39.0,-100.00,ESE,106,1.0,5.0,100,0.00,,,-99.99,20.000000,,2013-01-01 21:13:00,
2013-01-01 16:33:00,38.0,38.0,-100.00,ESE,106,1.0,6.0,99,0.00,,,-99.99,12.000000,,2013-01-01 21:33:00,
2013-01-01 16:43:00,38.0,38.0,-100.00,ESE,106,1.0,6.0,99,0.00,,,-99.99,12.000000,,2013-01-01 21:43:00,
2013-01-01 16:53:00,38.0,38.0,-100.00,ESE,106,1.0,6.0,99,0.00,,,-99.99,12.000000,,2013-01-01 21:53:00,
2013-01-01 17:03:00,38.0,38.0,-100.00,ESE,106,1.0,6.0,99,0.00,,,-99.99,12.000000,,2013-01-01 22:03:00,
2013-01-01 17:12:00,38.0,38.0,-100.00,ESE,106,1.0,6.0,99,0.00,,,-99.99,12.000000,,2013-01-01 22:12:00,
2013-01-01 17:33:00,37.0,37.0,-100.00,SW,224,2.0,8.0,100,0.01,,,-99.99,3.000000,,2013-01-01 22:33:00,
2013-01-01 17:43:00,37.0,37.0,-100.00,SW,224,2.0,8.0,100,0.01,,,-99.99,3.000000,,2013-01-01 22:43:00,
2013-01-01 17:53:00,37.0,37.0,-100.00,SW,224,2.0,8.0,100,0.01,,,-99.99,3.000000,,2013-01-01 22:53:00,
2013-01-01 18:03:00,37.0,37.0,-100.00,SW,224,2.0,8.0,100,0.01,,,-99.99,3.000000,,2013-01-01 23:03:00,
2013-01-01 18:12:00,37.0,37.0,-100.00,SW,224,2.0,8.0,100,0.01,,,-99.99,3.000000,,2013-01-01 23:12:00,
2013-01-01 18:33:00,36.0,36.0,-100.00,East,80,0.0,6.0,100,0.01,,,-99.99,0.000000,,2013-01-01 23:33:00,
2013-01-01 18:42:00,36.0,36.0,-100.00,East,80,0.0,6.0,100,0.01,,,-99.99,0.000000,,2013-01-01 23:42:00,
2013-01-01 18:53:00,36.0,36.0,-100.00,East,80,0.0,6.0,100,0.01,,,-99.99,0.000000,,2013-01-01 23:53:00,
2013-01-01 19:03:00,36.0,36.0,-100.00,East,80,0.0,6.0,100,0.01,,,-99.99,0.000000,,2013-01-02 00:03:00,
2013-01-01 19:12:00,36.0,36.0,-100.00,East,80,0.0,6.0,100,0.01,,,-99.99,0.000000,,2013-01-02 00:12:00,
2013-01-01 19:33:00,36.0,36.0,-100.00,SE,131,1.0,2.0,100,0.01,,,0.14,0.000000,,2013-01-02 00:33:00,
2013-01-01 19:43:00,36.0,36.0,-100.00,SE,131,1.0,2.0,100,0.01,,,0.14,0.000000,,2013-01-02 00:43:00,
2013-01-01 19:53:00,36.0,36.0,-100.00,SE,131,1.0,2.0,100,0.01,,,0.14,0.000000,,2013-01-02 00:53:00,
2013-01-01 20:02:00,36.0,36.0,-100.00,SE,131,1.0,2.0,100,0.01,,,0.14,0.000000,,2013-01-02 01:02:00,
2013-01-01 20:12:00,36.0,36.0,-100.00,SE,131,1.0,2.0,100,0.01,,,0.14,0.000000,,2013-01-02 01:12:00,
2013-01-01 20:42:00,36.0,36.0,-100.00,ESE,120,1.0,3.0,100,0.00,,,0.14,0.000000,,2013-01-02 01:42:00,
2013-01-01 20:53:00,36.0,36.0,-100.00,ESE,120,1.0,3.0,100,0.00,,,0.14,0.000000,,2013-01-02 01:53:00,
2013-01-01 21:02:00,36.0,36.0,-100.00,ESE,120,1.0,3.0,100,0.00,,,0.14,0.000000,,2013-01-02 02:02:00,
2013-01-01 21:12:00,36.0,36.0,-100.00,ESE,120,1.0,3.0,100,0.00,,,0.14,0.000000,,2013-01-02 02:12:00,
2013-01-01 21:32:00,35.0,35.0,-100.00,SSW,195,2.0,3.0,100,0.03,,,0.17,0.000000,,2013-01-02 02:32:00,
2013-01-01 21:43:00,35.0,35.0,-100.00,SSW,195,2.0,3.0,100,0.03,,,0.17,0.000000,,2013-01-02 02:43:00,
2013-01-01 21:53:00,35.0,35.0,-100.00,SSW,195,2.0,3.0,100,0.03,,,0.17,0.000000,,2013-01-02 02:53:00,
2013-01-01 22:02:00,35.0,35.0,-100.00,SSW,195,2.0,3.0,100,0.03,,,0.17,0.000000,,2013-01-02 03:02:00,
2013-01-01 22:12:00,35.0,35.0,-100.00,SSW,195,2.0,3.0,100,0.03,,,0.17,0.000000,,2013-01-02 03:12:00,
2013-01-01 22:42:00,33.0,33.0,-100.00,East,83,1.0,3.0,100,0.03,,,0.20,0.000000,,2013-01-02 03:42:00,
2013-01-01 22:53:00,33.0,33.0,-100.00,East,83,1.0,3.0,100,0.03,,,0.20,0.000000,,2013-01-02 03:53:00,
2013-01-01 23:03:00,33.0,33.0,-100.00,East,83,1.0,3.0,100,0.03,,,0.20,0.000000,,2013-01-02 04:03:00,
2013-01-01 23:12:00,33.0,33.0,-100.00,East,83,1.0,3.0,100,0.03,,,0.20,0.000000,,2013-01-02 04:12:00,
2013-01-01 23:33:00,33.0,33.0,-100.00,SE,141,0.0,2.0,100,0.01,,,0.21,0.000000,,2013-01-02 04:33:00,
2013-01-01 23:42:00,33.0,33.0,-100.00,SE,141,0.0,2.0,100,0.01,,,0.21,0.000000,,2013-01-02 04:42:00,
2013-01-01 23:53:00,33.0,33.0,-100.00,SE,141,0.0,2.0,100,0.01,,,0.21,0.000000,,2013-01-02 04:53:00,